Home   Weather   Kokkola   Past weeks

Flag for Finland Past Weather in Kokkola, Finland — Yesterday and Last 2 Weeks

Now
39 °F

Clear.


Feels Like: 39 °F
Forecast: 55 / 61 °F
Wind: 1 mph from Southwest

Location: Kruunupyy

Current Time: Aug 31, 2016 at 7:31:38 AM

Latest Report: Aug 31, 2016 at 6:50 AM


Visibility: 10 mi

Pressure: 29.89 "Hg

Humidity: 100%

Dew Point: 39 °F

Location of KokkolaLocation

Past Weather in Kokkola — Graph

°F

Kokkola Temperature Yesterday

Maximum temperature yesterday: 61 °F (at 11:50 AM)
Minimum temperature yesterday: 39 °F (at 5:50 AM)
Average temperature yesterday: 52 °F

High & Low Weather Summary for the Past Weeks

 TemperatureHumidityPressure
High70 °F (Aug 18, 2:20 PM)100% (Aug 16, 7:50 AM)30.24 "Hg (Aug 16, 7:50 AM)
Low34 °F (Aug 29, 1:50 AM)48% (Aug 28, 4:20 PM)29.27 "Hg (Aug 27, 12:50 PM)
Average56 °F83%29.95 "Hg
* Reported Aug 16 6:20 AM — Aug 31 6:20 AM, Kokkola, Weather by CustomWeather, © 2016

Note: Actual official high and low records may vary slightly from our data, if they occured in-between our weather recording intervals... More about our weather records

Advertising

Kokkola Weather History for the Previous 24 Hours

Scroll right to see more
 ConditionsComfort  
Time TempWeatherWind HumidityBarometerVisibility
6:20 AM
Wed, Aug 31
41 °FFog.No wind100%29.89 "HgN/A
5:50 AM41 °FFog.2 mph93%29.86 "HgN/A
5:20 AM41 °FClear.No wind100%29.86 "Hg10 mi
4:50 AM41 °FClear.3 mph93%29.86 "Hg10 mi
4:20 AM41 °FClear.5 mph100%29.86 "Hg10 mi
3:50 AM41 °FClear.2 mph93%29.83 "Hg10 mi
3:20 AM48 °FClear.5 mph87%29.83 "Hg10 mi
2:50 AM45 °FClear.3 mph93%29.83 "Hg10 mi
2:20 AM45 °FClear.3 mph93%29.83 "Hg10 mi
1:50 AM46 °FClear.1 mph93%29.83 "Hg10 mi
1:20 AM48 °FClear.2 mph94%29.80 "Hg10 mi
12:50 AM50 °FClear.5 mph94%29.80 "Hg10 mi
12:20 AM50 °FClear.3 mph94%29.80 "Hg10 mi
11:50 PM
Tue, Aug 30
52 °FClear.3 mph94%29.80 "Hg10 mi
11:20 PM54 °FClear.3 mph88%29.80 "Hg10 mi
10:50 PM54 °FPassing clouds.6 mph88%29.80 "HgN/A
10:20 PM54 °FPassing clouds.6 mph88%29.77 "HgN/A
9:50 PM55 °FPassing clouds.7 mph77%29.77 "HgN/A
9:20 PM55 °FPassing clouds.6 mph77%29.77 "HgN/A
8:50 PM55 °FPassing clouds.6 mph77%29.77 "HgN/A
8:20 PM55 °FPassing clouds.7 mph77%29.77 "HgN/A
7:50 PM57 °FPassing clouds.8 mph72%29.77 "HgN/A
7:20 PM59 °FPassing clouds.9 mph68%29.74 "HgN/A
6:50 PM59 °FPassing clouds.8 mph63%29.74 "HgN/A
6:20 PM57 °FPassing clouds.8 mph67%29.74 "HgN/A
5:50 PM59 °FPassing clouds.13 mph59%29.74 "HgN/A
5:20 PM59 °FPassing clouds.13 mph59%29.74 "HgN/A
4:50 PM57 °FPassing clouds.10 mph67%29.74 "HgN/A
4:20 PM59 °FPassing clouds.13 mph59%29.74 "HgN/A
3:50 PM59 °FPartly sunny.10 mph63%29.74 "HgN/A
3:20 PM61 °FPartly sunny.13 mph59%29.74 "HgN/A
2:50 PM61 °FPartly sunny.12 mph63%29.74 "HgN/A
2:20 PM61 °FPartly sunny.8 mph59%29.74 "HgN/A
1:50 PM61 °FPartly sunny.10 mph55%29.74 "HgN/A
1:20 PM61 °FPassing clouds.8 mph63%29.74 "HgN/A
12:50 PM61 °FPassing clouds.9 mph63%29.74 "HgN/A
12:20 PM61 °FScattered clouds.7 mph72%29.74 "HgN/A
11:50 AM61 °FPassing clouds.8 mph72%29.74 "HgN/A
11:20 AM59 °FPassing clouds.3 mph82%29.74 "HgN/A
10:50 AM57 °FPassing clouds.2 mph82%29.74 "HgN/A
10:20 AM55 °FPartly sunny.1 mph88%29.74 "HgN/A
9:50 AM54 °FSunny.1 mph88%29.74 "Hg10 mi
9:20 AM52 °FSunny.1 mph94%29.74 "Hg10 mi
8:50 AM50 °FSunny.No wind94%29.74 "Hg10 mi
8:20 AM46 °FSunny.2 mph100%29.74 "Hg10 mi
7:50 AM43 °FSunny.No wind100%29.74 "Hg10 mi
7:20 AM41 °FSunny.No wind93%29.74 "Hg10 mi
Weather by CustomWeather, © 2016

See weather overviewHow to use our weather pages